This is the latest recevied weather packets stored in our database for station/object KP4OZ. If no packets are shown the sender has not sent any weather packets the latest 1 day(s).
| Time | Temp. | Humidity | Pressure | Rain* | Wind** | Luminosity | Snow |
|---|---|---|---|---|---|---|---|
| 1777978471 | 26.67° C | 82% | 1017 hPa | 0 mm | 0 m/s | - | - |
| 1777978167 | 26.67° C | 82% | 1017 hPa | 0 mm | 0 m/s | - | - |
| 1777977864 | 26.67° C | 83% | 1017.1 hPa | 0 mm | 0.45 m/s, 107° | - | - |
| 1777977560 | 26.67° C | 84% | 1016.9 hPa | 0 mm | 0.45 m/s, 89° | - | - |
| 1777977258 | 26.11° C | 85% | 1016.9 hPa | 0 mm | 0.45 m/s, 117° | - | - |
| 1777976955 | 26.11° C | 86% | 1016.7 hPa | 0 mm | 0 m/s | - | - |
| 1777976653 | 26.11° C | 86% | 1016.5 hPa | 0 mm | 0.45 m/s, 76° | - | - |
| 1777976349 | 25.56° C | 87% | 1016.6 hPa | 0 mm | 0 m/s | - | - |
| 1777976059 | 25.56° C | 87% | 1016.5 hPa | 0 mm | 0.45 m/s, 102° | - | - |
| 1777975745 | 25.56° C | 87% | 1016.5 hPa | 0 mm | 0 m/s | - | - |
| 1777975442 | 25.56° C | 87% | 1016.3 hPa | 0 mm | 0.45 m/s, 64° | - | - |
| 1777975137 | 25.56° C | 87% | 1016.3 hPa | 0 mm | 0 m/s | - | - |
| 1777974835 | 25.56° C | 87% | 1016.3 hPa | 0 mm | 0.45 m/s, 188° | - | - |
| 1777974531 | 25.56° C | 87% | 1016.1 hPa | 0 mm | 0.45 m/s, 112° | - | - |
| 1777974233 | 25.56° C | 87% | 1016.3 hPa | 0 mm | 0.45 m/s, 103° | - | - |
| 1777973924 | 25.56° C | 87% | 1016.2 hPa | 0 mm | 0 m/s | - | - |
| 1777973621 | 25.56° C | 86% | 1016 hPa | 0 mm | 0 m/s | - | - |
| 1777973318 | 25.56° C | 86% | 1016.3 hPa | 0 mm | 0 m/s | - | - |
| 1777973017 | 25.56° C | 87% | 1016.4 hPa | 0 mm | 0 m/s | - | - |
| 1777972713 | 25.56° C | 87% | 1016.2 hPa | 0 mm | 0 m/s | - | - |
| 1777972411 | 25.56° C | 87% | 1016.1 hPa | 0 mm | 0.45 m/s, 154° | - | - |
| 1777972109 | 25.56° C | 87% | 1016.3 hPa | 0 mm | 0.45 m/s, 142° | - | - |
| 1777971807 | 25.56° C | 87% | 1016.1 hPa | 0 mm | 0.45 m/s, 126° | - | - |
| 1777971504 | 25.56° C | 87% | 1015.8 hPa | 0 mm | 0.89 m/s, 181° | - | - |
| 1777971202 | 25.56° C | 88% | 1016 hPa | 0 mm | 0.45 m/s, 141° | - | - |
* Rain latest hour (hover to see other rain measurements)
** Current wind speed in m/s (hover to see current wind gust speed)